Weather History for Fortuna, CA

Change the Weather History Date:

Wednesday, November 28, 2012

  Actual Average (KEKA) Record (KEKA)
Temperature  
Mean Temperature 54 °F 49 °F  
Max Temperature 57 °F 56 °F 70 °F (1901)
Min Temperature 51 °F 42 °F 30 °F (1896)
Degree Days  
Heating Degree Days 11 16  
Month to date heating degree days 395  
Since 1 July heating degree days 1389  
Cooling Degree Days 0 0  
Month to date cooling degree days 0  
Year to date cooling degree days 0  
Growing Degree Days 4 (Base 50)    
Moisture  
Dew Point 52 °F    
Average Humidity 90    
Maximum Humidity 100    
Minimum Humidity 63    
Precipitation  
Precipitation 1.07 in 0.23 in 1.82 in (1932)
Month to date precipitation 5.13  
Year to date precipitation 31.73  
Since 1 July precipitation 8.45  
Snow  
Snow - 0.00 in 0.00 in (2002)
Month to date snowfall 0.0  
Since 1 July snowfall 0.0  
Since 1 September snowfall 0.0  
Snow Depth -    
Sea Level Pressure  
Sea Level Pressure 29.77 in    
Wind  
Wind Speed 18 mph ()    
Max Wind Speed 31 mph    
Max Gust Speed 46 mph    
Visibility 7.8 miles    
Events      
T = Trace of Precipitation, MM = Missing Value Source: Averaged Metar Reports

Daily Weather History Graph

Daily Weather History Graph

Search for Another Location

Airport:

Trip Planner

Search our weather history database for the weather conditions in past years. The results will help you decide how hot, cold, wet, or windy it might be!

Date:

Astronomy

Nov. 28, 2012 Rise Set
Actual Time 7:18 AM PST 4:50 PM PST
Civil Twilight 6:48 AM PST 5:21 PM PST
Nautical Twilight 6:14 AM PST 5:54 PM PST
Astronomical Twilight 5:41 AM PST 6:27 PM PST
Moon 5:10 PM PST (11/28) 7:20 AM PST (11/28)
Length of Visible Light 10h 33m
Length of Day
9h 32m
Full, 100% of the Moon is Illuminated
Nov 28
Full
Dec 6
Last Quarter
Dec 13
New
Dec 19
First Quarter
Dec 28
Full

Hourly Weather History & Observations

Time (PST) Temp. Dew Point Humidity Pressure Visibility Wind Dir Wind Speed Gust Speed Precip Events Conditions
12:15 AM 57.2 °F 44.6 °F 63% 29.80 in 10.0 mi SSE 16.1 mph 23.0 mph N/A   Clear
12:35 AM 57.2 °F 44.6 °F 63% 29.81 in 10.0 mi SSE 18.4 mph 26.5 mph N/A   Clear
12:55 AM 57.2 °F 44.6 °F 63% 29.81 in 10.0 mi SSE 12.7 mph - N/A   Scattered Clouds
1:15 AM 57.2 °F 44.6 °F 63% 29.80 in 10.0 mi SSE 15.0 mph 25.3 mph N/A   Mostly Cloudy
1:35 AM 57.2 °F 44.6 °F 63% 29.79 in 10.0 mi SE 18.4 mph 27.6 mph N/A   Overcast
1:55 AM 57.2 °F 44.6 °F 63% 29.78 in 10.0 mi SE 20.7 mph 28.8 mph N/A   Overcast
2:15 AM 57.2 °F 44.6 °F 63% 29.77 in 10.0 mi SE 18.4 mph 32.2 mph N/A   Overcast
2:35 AM 57.2 °F 44.6 °F 63% 29.76 in 10.0 mi SE 23.0 mph 33.4 mph N/A   Overcast
2:55 AM 57.2 °F 46.4 °F 67% 29.75 in 10.0 mi SE 20.7 mph 33.4 mph N/A   Overcast
3:15 AM 55.4 °F 48.2 °F 77% 29.75 in 5.0 mi SE 25.3 mph 34.5 mph N/A   Overcast
3:35 AM 53.6 °F 50.0 °F 88% 29.72 in 5.0 mi SE 27.6 mph 35.7 mph 0.04 in   Overcast
3:55 AM 53.6 °F 50.0 °F 88% 29.70 in 5.0 mi SE 25.3 mph 33.4 mph 0.05 in   Overcast
4:15 AM 53.6 °F 51.8 °F 94% 29.71 in 3.0 mi SE 21.9 mph 29.9 mph 0.07 in   Overcast
4:35 AM 51.8 °F 51.8 °F 100% 29.69 in 5.0 mi SE 19.6 mph 24.2 mph 0.14 in   Overcast
4:55 AM 53.6 °F 51.8 °F 94% 29.67 in 5.0 mi SE 23.0 mph 29.9 mph 0.17 in   Overcast
5:15 AM 53.6 °F 51.8 °F 94% 29.68 in 5.0 mi SSE 13.8 mph 24.2 mph 0.02 in   Overcast
5:35 AM 53.6 °F 51.8 °F 94% 29.66 in 4.0 mi SE 27.6 mph 35.7 mph 0.04 in   Overcast
5:55 AM 53.6 °F 53.6 °F 100% 29.66 in 5.0 mi SE 27.6 mph 38.0 mph 0.07 in   Overcast
6:15 AM 53.6 °F 53.6 °F 100% 29.66 in 3.0 mi SE 27.6 mph 42.6 mph 0.05 in   Overcast
6:35 AM 53.6 °F 53.6 °F 100% 29.64 in 4.0 mi ESE 25.3 mph 39.1 mph 0.14 in   Overcast
6:55 AM 53.6 °F 53.6 °F 100% 29.62 in 3.0 mi SE 26.5 mph 35.7 mph 0.20 in   Overcast
7:15 AM 53.6 °F 53.6 °F 100% 29.62 in 7.0 mi SE 25.3 mph 32.2 mph 0.02 in   Overcast
7:35 AM 55.4 °F 53.6 °F 94% 29.63 in 4.0 mi SE 20.7 mph 31.1 mph 0.05 in   Overcast
7:55 AM 53.6 °F 53.6 °F 100% 29.64 in 3.0 mi SE 18.4 mph 29.9 mph 0.11 in   Overcast
8:15 AM 55.4 °F 55.4 °F 100% 29.64 in 3.0 mi SE 23.0 mph 26.5 mph 0.06 in   Mostly Cloudy
8:35 AM 53.6 °F 53.6 °F 100% 29.68 in 2.0 mi SSE 11.5 mph 19.6 mph 0.19 in   Overcast
8:55 AM 55.4 °F 53.6 °F 94% 29.69 in 4.0 mi SE 16.1 mph 25.3 mph 0.25 in   Overcast
9:15 AM 55.4 °F 53.6 °F 94% 29.72 in 5.0 mi SE 9.2 mph - 0.03 in   Mostly Cloudy
9:35 AM 53.6 °F 53.6 °F 100% 29.74 in 5.0 mi SE 11.5 mph - 0.05 in   Mostly Cloudy
9:55 AM 53.6 °F 53.6 °F 100% 29.77 in 5.0 mi ESE 6.9 mph - 0.08 in   Scattered Clouds
10:15 AM 53.6 °F 53.6 °F 100% 29.77 in 4.0 mi ESE 10.4 mph - 0.03 in   Scattered Clouds
10:55 AM 53.6 °F 53.6 °F 100% 29.77 in 10.0 mi ESE 15.0 mph 20.7 mph 0.09 in   Partly Cloudy
11:15 AM 53.6 °F 53.6 °F 100% 29.78 in 10.0 mi ESE 17.3 mph - N/A   Scattered Clouds
11:35 AM 53.6 °F 53.6 °F 100% 29.77 in 10.0 mi ESE 15.0 mph 20.7 mph N/A   Mostly Cloudy
11:55 AM 53.6 °F 53.6 °F 100% 29.78 in 8.0 mi ESE 12.7 mph - 0.01 in   Mostly Cloudy
12:15 PM 55.4 °F 55.4 °F 100% 29.78 in 10.0 mi ESE 12.7 mph 17.3 mph N/A   Mostly Cloudy
12:35 PM 55.4 °F 55.4 °F 100% 29.77 in 10.0 mi SE 16.1 mph - N/A   Mostly Cloudy
12:55 PM 57.2 °F 53.6 °F 88% 29.78 in 10.0 mi ESE 20.7 mph 26.5 mph N/A   Mostly Cloudy
1:15 PM 55.4 °F 53.6 °F 94% 29.78 in 10.0 mi ESE 23.0 mph 26.5 mph N/A   Mostly Cloudy
1:35 PM 55.4 °F 51.8 °F 88% 29.78 in 10.0 mi SE 21.9 mph 25.3 mph N/A   Mostly Cloudy
1:55 PM 55.4 °F 53.6 °F 94% 29.79 in 10.0 mi SE 20.7 mph 25.3 mph N/A   Mostly Cloudy
2:15 PM 55.4 °F 53.6 °F 94% 29.78 in 10.0 mi SE 18.4 mph 23.0 mph N/A   Mostly Cloudy
2:35 PM 55.4 °F 53.6 °F 94% 29.79 in 10.0 mi SE 18.4 mph 21.9 mph N/A   Overcast
2:55 PM 55.4 °F 53.6 °F 94% 29.79 in 10.0 mi SE 15.0 mph - N/A   Overcast
3:15 PM 55.4 °F 55.4 °F 100% 29.79 in 5.0 mi SE 16.1 mph 19.6 mph N/A   Mostly Cloudy
3:35 PM 55.4 °F 55.4 °F 100% 29.79 in 10.0 mi SE 16.1 mph - N/A   Scattered Clouds
3:55 PM 55.4 °F 53.6 °F 94% 29.80 in 8.0 mi SE 17.3 mph - N/A   Mostly Cloudy
4:35 PM 53.6 °F 53.6 °F 100% 29.82 in 8.0 mi SE 12.7 mph - N/A   Overcast
4:55 PM 53.6 °F 53.6 °F 100% 29.82 in 8.0 mi SE 16.1 mph - N/A   Mostly Cloudy
5:15 PM 53.6 °F 53.6 °F 100% 29.83 in 10.0 mi SE 13.8 mph - N/A   Mostly Cloudy
5:35 PM 55.4 °F 53.6 °F 94% 29.83 in 10.0 mi SE 16.1 mph 19.6 mph N/A   Overcast
5:55 PM 55.4 °F 53.6 °F 94% 29.83 in 8.0 mi SE 15.0 mph 20.7 mph 0.01 in   Overcast
6:15 PM 55.4 °F 53.6 °F 94% 29.84 in 10.0 mi SE 18.4 mph - N/A   Overcast
6:35 PM 55.4 °F 53.6 °F 94% 29.84 in 10.0 mi SE 17.3 mph - N/A   Overcast
6:55 PM 55.4 °F 53.6 °F 94% 29.84 in 10.0 mi ESE 19.6 mph - N/A   Overcast
7:15 PM 55.4 °F 53.6 °F 94% 29.84 in 10.0 mi SE 18.4 mph - N/A   Overcast
7:35 PM 55.4 °F 51.8 °F 88% 29.85 in 10.0 mi SE 18.4 mph - N/A   Mostly Cloudy
7:55 PM 55.4 °F 51.8 °F 88% 29.86 in 9.0 mi SE 12.7 mph - N/A   Overcast
8:15 PM 55.4 °F 51.8 °F 88% 29.86 in 7.0 mi SE 13.8 mph 24.2 mph N/A   Overcast
8:35 PM 55.4 °F 51.8 °F 88% 29.86 in 7.0 mi SE 20.7 mph 26.5 mph N/A   Overcast
8:55 PM 55.4 °F 51.8 °F 88% 29.86 in 9.0 mi SE 16.1 mph 23.0 mph 0.01 in   Overcast
9:15 PM 53.6 °F 53.6 °F 100% 29.85 in 5.0 mi SE 20.7 mph 27.6 mph 0.01 in   Overcast
9:35 PM 53.6 °F 53.6 °F 100% 29.85 in 9.0 mi SE 24.2 mph 31.1 mph 0.02 in   Overcast
10:15 PM 55.4 °F 51.8 °F 88% 29.83 in 10.0 mi SE 31.1 mph 35.7 mph N/A   Overcast
10:35 PM 55.4 °F 50.0 °F 82% 29.83 in 10.0 mi SE 27.6 mph 33.4 mph N/A   Mostly Cloudy
10:55 PM 55.4 °F 50.0 °F 82% 29.82 in 10.0 mi SSE 28.8 mph 38.0 mph N/A   Mostly Cloudy
11:15 PM 55.4 °F 48.2 °F 77% 29.81 in 10.0 mi SSE 29.9 mph 44.9 mph N/A   Mostly Cloudy
11:35 PM 55.4 °F 48.2 °F 77% 29.81 in 10.0 mi SE 31.1 mph 46.0 mph N/A   Partly Cloudy
11:55 PM 57.2 °F 48.2 °F 72% 29.81 in 10.0 mi SE 27.6 mph 40.3 mph N/A   Mostly Cloudy